Location: Clatteringshaws Loch
(55.0508°N, 4.2860°W)
Time: 23:19:04
(UTC+01:00)

ALOS - Visible Passes

Search period start: 01 October 2016 00:00
Search period end: 11 October 2016 00:00
Orbit: 684 x 687 km, 97.9° (Epoch: 01 October)

Date Brightness Start Highest point End Pass type
(mag) Time Alt. Az. Time Alt. Az. Time Alt. Az.
01 Oct 2.9 19:28:12 10° SE 19:32:26 35° ENE 19:36:41 10° N visible
01 Oct 3.5 21:05:26 10° SSW 21:09:51 41° W 21:14:18 10° NNW visible
02 Oct 2.2 20:05:17 10° SSE 20:09:55 68° ENE 20:14:35 10° N visible
02 Oct 4.6 21:44:17 10° SW 21:47:50 21° W 21:51:24 10° NW visible
03 Oct 2.7 20:42:57 10° S 20:47:35 62° WSW 20:52:15 10° NNW visible
03 Oct 5.3 22:25:06 10° W 22:26:01 10° W 22:26:57 10° WNW visible
04 Oct 2.6 19:43:22 10° SE 19:47:49 46° ENE 19:52:17 10° N visible
04 Oct 4.0 21:21:18 10° SSW 21:25:26 31° W 21:29:37 10° NNW visible
05 Oct 2.2 20:20:41 10° SSE 20:25:22 89° E 20:30:06 10° NNW visible
05 Oct 5.0 22:00:38 10° SW 22:03:30 16° W 22:06:24 10° NW visible
06 Oct 3.0 19:21:39 10° ESE 19:25:46 32° ENE 19:29:56 10° N visible
06 Oct 3.3 20:58:37 10° S 21:03:07 46° W 21:07:38 10° NNW visible
07 Oct 2.3 19:58:37 10° SSE 20:03:13 60° ENE 20:07:51 10° N visible
07 Oct 4.5 21:37:19 10° SW 21:41:03 23° W 21:44:49 10° NW visible
08 Oct 2.5 20:36:11 10° S 20:40:51 69° WSW 20:45:32 10° NNW visible
08 Oct 5.2 22:17:27 10° WSW 22:19:12 12° W 22:20:58 10° WNW visible
09 Oct 2.7 19:36:46 10° SE 19:41:08 41° ENE 19:45:32 10° N visible
09 Oct 3.8 21:14:24 10° SSW 21:18:40 34° W 21:22:58 10° NNW visible
10 Oct 2.2 20:13:59 10° SSE 20:18:39 80° ENE 20:23:22 10° NNW visible
10 Oct 4.8 21:53:31 10° SW 21:56:42 18° W 21:59:53 10° NW visible
